Time,TemperatureF,DewpointF,PressureIn,WindDirection,WindDirectionDegrees,WindSpeedMPH,WindSpeedGustMPH,Humidity,HourlyPrecipIn,Conditions,Clouds,dailyrainin,SolarRadiationWatts/m^2,SoftwareType,DateUTC
2013-03-21 00:03:00,63.0,62.0,-100.00,SSW,212,1.0,2.0,96,0.00,,,0.07,0.000000,,2013-03-21 04:03:00,
2013-03-21 00:11:00,62.0,61.0,-100.00,NW,317,0.0,3.0,96,0.00,,,0.07,0.000000,,2013-03-21 04:11:00,
2013-03-21 00:43:00,62.0,61.0,-100.00,NW,317,0.0,3.0,96,0.00,,,0.07,0.000000,,2013-03-21 04:43:00,
2013-03-21 00:53:00,62.0,61.0,-100.00,NW,317,0.0,3.0,96,0.00,,,0.07,0.000000,,2013-03-21 04:53:00,
2013-03-21 01:03:00,62.0,61.0,-100.00,NW,317,0.0,3.0,96,0.00,,,0.07,0.000000,,2013-03-21 05:03:00,
2013-03-21 01:11:00,61.0,60.0,-100.00,NNW,328,1.0,5.0,97,0.00,,,0.07,0.000000,,2013-03-21 05:11:00,
2013-03-21 01:33:00,61.0,60.0,-100.00,NNW,328,1.0,5.0,97,0.00,,,0.07,0.000000,,2013-03-21 05:33:00,
2013-03-21 01:44:00,61.0,60.0,-100.00,NNW,328,1.0,5.0,97,0.00,,,0.07,0.000000,,2013-03-21 05:44:00,
2013-03-21 01:52:00,61.0,60.0,-100.00,NNW,328,1.0,5.0,97,0.00,,,0.07,0.000000,,2013-03-21 05:52:00,
2013-03-21 02:03:00,61.0,60.0,-100.00,NNW,328,1.0,5.0,97,0.00,,,0.07,0.000000,,2013-03-21 06:03:00,
2013-03-21 02:11:00,60.0,59.0,-100.00,NW,310,0.0,3.0,97,0.00,,,0.07,0.000000,,2013-03-21 06:11:00,
2013-03-21 02:32:00,60.0,59.0,-100.00,NW,310,0.0,3.0,97,0.00,,,0.07,0.000000,,2013-03-21 06:32:00,
2013-03-21 02:42:00,60.0,59.0,-100.00,NW,310,0.0,3.0,97,0.00,,,0.07,0.000000,,2013-03-21 06:42:00,
2013-03-21 02:52:00,60.0,59.0,-100.00,NW,310,0.0,3.0,97,0.00,,,0.07,0.000000,,2013-03-21 06:52:00,
2013-03-21 03:02:00,60.0,59.0,-100.00,NW,310,0.0,3.0,97,0.00,,,0.07,0.000000,,2013-03-21 07:02:00,
2013-03-21 03:11:00,57.0,56.0,-100.00,WSW,258,0.0,2.0,97,0.00,,,0.07,0.000000,,2013-03-21 07:11:00,
2013-03-21 03:33:00,57.0,56.0,-100.00,WSW,258,0.0,2.0,97,0.00,,,0.07,0.000000,,2013-03-21 07:33:00,
2013-03-21 03:43:00,57.0,56.0,-100.00,WSW,258,0.0,2.0,97,0.00,,,0.07,0.000000,,2013-03-21 07:43:00,
2013-03-21 03:53:00,57.0,56.0,-100.00,WSW,258,0.0,2.0,97,0.00,,,0.07,0.000000,,2013-03-21 07:53:00,
2013-03-21 04:02:00,57.0,56.0,-100.00,WSW,258,0.0,2.0,97,0.00,,,0.07,0.000000,,2013-03-21 08:02:00,
2013-03-21 04:11:00,60.0,59.0,-100.00,NNW,348,2.0,4.0,97,0.01,,,0.08,0.000000,,2013-03-21 08:11:00,
2013-03-21 04:43:00,60.0,59.0,-100.00,NNW,348,2.0,4.0,97,0.01,,,0.08,0.000000,,2013-03-21 08:43:00,
2013-03-21 04:52:00,60.0,59.0,-100.00,NNW,348,2.0,4.0,97,0.01,,,0.08,0.000000,,2013-03-21 08:52:00,
2013-03-21 05:02:00,60.0,59.0,-100.00,NNW,348,2.0,4.0,97,0.01,,,0.08,0.000000,,2013-03-21 09:02:00,
2013-03-21 05:11:00,62.0,61.0,-100.00,WNW,290,1.0,6.0,97,0.00,,,0.08,0.000000,,2013-03-21 09:11:00,
2013-03-21 05:33:00,62.0,61.0,-100.00,WNW,290,1.0,6.0,97,0.00,,,0.08,0.000000,,2013-03-21 09:33:00,
2013-03-21 05:43:00,62.0,61.0,-100.00,WNW,290,1.0,6.0,97,0.00,,,0.08,0.000000,,2013-03-21 09:43:00,
2013-03-21 05:53:00,62.0,61.0,-100.00,WNW,290,1.0,6.0,97,0.00,,,0.08,0.000000,,2013-03-21 09:53:00,
2013-03-21 06:03:00,62.0,61.0,-100.00,WNW,290,1.0,6.0,97,0.00,,,0.08,0.000000,,2013-03-21 10:03:00,
2013-03-21 06:11:00,60.0,59.0,-100.00,NNW,332,3.0,5.0,97,0.00,,,0.08,0.000000,,2013-03-21 10:11:00,
2013-03-21 06:43:00,60.0,59.0,-100.00,NNW,332,3.0,5.0,97,0.00,,,0.08,0.000000,,2013-03-21 10:43:00,
2013-03-21 06:53:00,60.0,59.0,-100.00,NNW,332,3.0,5.0,97,0.00,,,0.08,0.000000,,2013-03-21 10:53:00,
2013-03-21 07:03:00,60.0,59.0,-100.00,NNW,332,3.0,5.0,97,0.00,,,0.08,0.000000,,2013-03-21 11:03:00,
2013-03-21 07:11:00,59.0,58.0,-100.00,North,354,2.0,10.0,96,0.00,,,0.07,0.000000,,2013-03-21 11:11:00,
2013-03-21 07:33:00,59.0,58.0,-100.00,North,354,2.0,10.0,96,0.00,,,0.07,0.000000,,2013-03-21 11:33:00,
2013-03-21 07:43:00,59.0,58.0,-100.00,North,354,2.0,10.0,96,0.00,,,0.07,0.000000,,2013-03-21 11:43:00,
2013-03-21 07:53:00,59.0,58.0,-100.00,North,354,2.0,10.0,96,0.00,,,0.07,0.000000,,2013-03-21 11:53:00,
2013-03-21 08:03:00,59.0,58.0,-100.00,North,354,2.0,10.0,96,0.00,,,0.07,0.000000,,2013-03-21 12:03:00,
2013-03-21 08:11:00,57.0,55.0,-100.00,North,354,2.0,8.0,94,0.00,,,0.07,11.000000,,2013-03-21 12:11:00,
2013-03-21 08:33:00,57.0,55.0,-100.00,North,354,2.0,8.0,94,0.00,,,0.07,11.000000,,2013-03-21 12:33:00,
2013-03-21 08:43:00,57.0,55.0,-100.00,North,354,2.0,8.0,94,0.00,,,0.07,11.000000,,2013-03-21 12:43:00,
2013-03-21 08:53:00,57.0,55.0,-100.00,North,354,2.0,8.0,94,0.00,,,0.07,11.000000,,2013-03-21 12:53:00,
2013-03-21 09:03:00,57.0,55.0,-100.00,North,354,2.0,8.0,94,0.00,,,0.07,11.000000,,2013-03-21 13:03:00,
2013-03-21 09:11:00,62.0,56.0,-100.00,NNW,345,3.0,8.0,80,0.00,,,0.07,214.000000,,2013-03-21 13:11:00,
2013-03-21 09:33:00,62.0,56.0,-100.00,NNW,345,3.0,8.0,80,0.00,,,0.07,214.000000,,2013-03-21 13:33:00,
2013-03-21 09:43:00,62.0,56.0,-100.00,NNW,345,3.0,8.0,80,0.00,,,0.07,214.000000,,2013-03-21 13:43:00,
2013-03-21 09:53:00,62.0,56.0,-100.00,NNW,345,3.0,8.0,80,0.00,,,0.07,214.000000,,2013-03-21 13:53:00,
2013-03-21 10:02:00,62.0,56.0,-100.00,NNW,345,3.0,8.0,80,0.00,,,0.07,214.000000,,2013-03-21 14:02:00,
2013-03-21 10:11:00,65.0,51.0,-100.00,NE,38,4.0,10.0,60,0.00,,,0.07,410.000000,,2013-03-21 14:11:00,
2013-03-21 10:43:00,65.0,51.0,-100.00,NE,38,4.0,10.0,60,0.00,,,0.07,410.000000,,2013-03-21 14:43:00,
2013-03-21 10:52:00,65.0,51.0,-100.00,NE,38,4.0,10.0,60,0.00,,,0.07,410.000000,,2013-03-21 14:52:00,
2013-03-21 11:04:00,65.0,51.0,-100.00,NE,38,4.0,10.0,60,0.00,,,0.07,410.000000,,2013-03-21 15:04:00,
2013-03-21 11:11:00,68.0,48.0,-100.00,NNE,22,5.0,10.0,48,0.00,,,0.07,609.000000,,2013-03-21 15:11:00,
2013-03-21 11:33:00,68.0,48.0,-100.00,NNE,22,5.0,10.0,48,0.00,,,0.07,609.000000,,2013-03-21 15:33:00,
2013-03-21 11:43:00,68.0,48.0,-100.00,NNE,22,5.0,10.0,48,0.00,,,0.07,609.000000,,2013-03-21 15:43:00,
2013-03-21 11:53:00,68.0,48.0,-100.00,NNE,22,5.0,10.0,48,0.00,,,0.07,609.000000,,2013-03-21 15:53:00,
2013-03-21 12:03:00,68.0,48.0,-100.00,NNE,22,5.0,10.0,48,0.00,,,0.07,609.000000,,2013-03-21 16:03:00,
2013-03-21 12:11:00,70.0,47.0,-100.00,NE,47,4.0,11.0,44,0.00,,,0.07,761.000000,,2013-03-21 16:11:00,
2013-03-21 12:33:00,70.0,47.0,-100.00,NE,47,4.0,11.0,44,0.00,,,0.07,761.000000,,2013-03-21 16:33:00,
2013-03-21 12:42:00,70.0,47.0,-100.00,NE,47,4.0,11.0,44,0.00,,,0.07,761.000000,,2013-03-21 16:42:00,
2013-03-21 12:53:00,70.0,47.0,-100.00,NE,47,4.0,11.0,44,0.00,,,0.07,761.000000,,2013-03-21 16:53:00,
2013-03-21 13:03:00,70.0,47.0,-100.00,NE,47,4.0,11.0,44,0.00,,,0.07,761.000000,,2013-03-21 17:03:00,
2013-03-21 13:11:00,72.0,46.0,-100.00,North,10,5.0,11.0,40,0.00,,,0.07,848.000000,,2013-03-21 17:11:00,
2013-03-21 13:33:00,72.0,46.0,-100.00,North,10,5.0,11.0,40,0.00,,,0.07,848.000000,,2013-03-21 17:33:00,
2013-03-21 13:43:00,72.0,46.0,-100.00,North,10,5.0,11.0,40,0.00,,,0.07,848.000000,,2013-03-21 17:43:00,
2013-03-21 13:53:00,72.0,46.0,-100.00,North,10,5.0,11.0,40,0.00,,,0.07,848.000000,,2013-03-21 17:53:00,
2013-03-21 14:02:00,72.0,46.0,-100.00,North,10,5.0,11.0,40,0.00,,,0.07,848.000000,,2013-03-21 18:02:00,
2013-03-21 14:11:00,74.0,46.0,-100.00,NW,321,4.0,11.0,37,0.00,,,0.07,871.000000,,2013-03-21 18:11:00,
2013-03-21 14:43:00,74.0,46.0,-100.00,NW,321,4.0,11.0,37,0.00,,,0.07,871.000000,,2013-03-21 18:43:00,
2013-03-21 14:52:00,74.0,46.0,-100.00,NW,321,4.0,11.0,37,0.00,,,0.07,871.000000,,2013-03-21 18:52:00,
2013-03-21 15:02:00,74.0,46.0,-100.00,NW,321,4.0,11.0,37,0.00,,,0.07,871.000000,,2013-03-21 19:02:00,
2013-03-21 15:11:00,75.0,47.0,-100.00,ENE,77,4.0,12.0,37,0.00,,,0.07,829.000000,,2013-03-21 19:11:00,
2013-03-21 15:43:00,75.0,47.0,-100.00,ENE,77,4.0,12.0,37,0.00,,,0.07,829.000000,,2013-03-21 19:43:00,
2013-03-21 15:53:00,75.0,47.0,-100.00,ENE,77,4.0,12.0,37,0.00,,,0.07,829.000000,,2013-03-21 19:53:00,
2013-03-21 16:02:00,75.0,47.0,-100.00,ENE,77,4.0,12.0,37,0.00,,,0.07,829.000000,,2013-03-21 20:02:00,
2013-03-21 16:11:00,77.0,47.0,-100.00,NE,41,3.0,7.0,35,0.00,,,0.07,722.000000,,2013-03-21 20:11:00,
2013-03-21 16:43:00,77.0,47.0,-100.00,NE,41,3.0,7.0,35,0.00,,,0.07,722.000000,,2013-03-21 20:43:00,
2013-03-21 16:53:00,77.0,47.0,-100.00,NE,41,3.0,7.0,35,0.00,,,0.07,722.000000,,2013-03-21 20:53:00,
2013-03-21 17:03:00,77.0,47.0,-100.00,NE,41,3.0,7.0,35,0.00,,,0.07,722.000000,,2013-03-21 21:03:00,
2013-03-21 17:11:00,78.0,46.0,-100.00,NNE,31,2.0,7.0,32,0.00,,,-99.99,562.000000,,2013-03-21 21:11:00,
2013-03-21 17:43:00,78.0,46.0,-100.00,NNE,31,2.0,7.0,32,0.00,,,-99.99,562.000000,,2013-03-21 21:43:00,
2013-03-21 17:53:00,78.0,46.0,-100.00,NNE,31,2.0,7.0,32,0.00,,,-99.99,562.000000,,2013-03-21 21:53:00,
2013-03-21 18:03:00,78.0,46.0,-100.00,NNE,31,2.0,7.0,32,0.00,,,-99.99,562.000000,,2013-03-21 22:03:00,
2013-03-21 18:11:00,77.0,42.0,-100.00,NW,321,3.0,6.0,29,0.00,,,0.07,366.000000,,2013-03-21 22:11:00,
2013-03-21 18:34:00,77.0,42.0,-100.00,NW,321,3.0,6.0,29,0.00,,,0.07,366.000000,,2013-03-21 22:34:00,
2013-03-21 18:43:00,77.0,42.0,-100.00,NW,321,3.0,6.0,29,0.00,,,0.07,366.000000,,2013-03-21 22:43:00,
2013-03-21 18:53:00,77.0,42.0,-100.00,NW,321,3.0,6.0,29,0.00,,,0.07,366.000000,,2013-03-21 22:53:00,
2013-03-21 19:02:00,77.0,42.0,-100.00,NW,321,3.0,6.0,29,0.00,,,0.07,366.000000,,2013-03-21 23:02:00,
2013-03-21 19:11:00,69.0,52.0,-100.00,WSW,242,1.0,6.0,54,0.00,,,0.07,138.000000,,2013-03-21 23:11:00,
2013-03-21 19:33:00,69.0,52.0,-100.00,WSW,242,1.0,6.0,54,0.00,,,0.07,138.000000,,2013-03-21 23:33:00,
2013-03-21 19:43:00,69.0,52.0,-100.00,WSW,242,1.0,6.0,54,0.00,,,0.07,138.000000,,2013-03-21 23:43:00,
2013-03-21 19:53:00,69.0,52.0,-100.00,WSW,242,1.0,6.0,54,0.00,,,0.07,138.000000,,2013-03-21 23:53:00,
2013-03-21 20:03:00,69.0,52.0,-100.00,WSW,242,1.0,6.0,54,0.00,,,0.07,138.000000,,2013-03-22 00:03:00,
2013-03-21 21:11:00,53.0,51.0,-100.00,SE,126,0.0,2.0,92,-99.99,,,0.04,0.000000,,2013-03-22 01:11:00,
2013-03-21 21:43:00,53.0,51.0,-100.00,SE,126,0.0,2.0,92,-99.99,,,0.04,0.000000,,2013-03-22 01:43:00,
2013-03-21 21:53:00,53.0,51.0,-100.00,SE,126,0.0,2.0,92,-99.99,,,0.04,0.000000,,2013-03-22 01:53:00,
2013-03-21 22:03:00,53.0,51.0,-100.00,SE,126,0.0,2.0,92,-99.99,,,0.04,0.000000,,2013-03-22 02:03:00,
2013-03-21 22:11:00,50.0,48.0,-100.00,NW,309,0.0,2.0,93,0.00,,,0.01,0.000000,,2013-03-22 02:11:00,
2013-03-21 22:43:00,50.0,48.0,-100.00,NW,309,0.0,2.0,93,0.00,,,0.01,0.000000,,2013-03-22 02:43:00,
2013-03-21 22:53:00,50.0,48.0,-100.00,NW,309,0.0,2.0,93,0.00,,,0.01,0.000000,,2013-03-22 02:53:00,
2013-03-21 23:02:00,50.0,48.0,-100.00,NW,309,0.0,2.0,93,0.00,,,0.01,0.000000,,2013-03-22 03:02:00,
2013-03-21 23:11:00,50.0,48.0,-100.00,ESE,122,0.0,4.0,94,0.00,,,0.01,0.000000,,2013-03-22 03:11:00,
2013-03-21 23:33:00,50.0,48.0,-100.00,ESE,122,0.0,4.0,94,0.00,,,0.01,0.000000,,2013-03-22 03:33:00,
2013-03-21 23:43:00,50.0,48.0,-100.00,ESE,122,0.0,4.0,94,0.00,,,0.01,0.000000,,2013-03-22 03:43:00,
2013-03-21 23:53:00,50.0,48.0,-100.00,ESE,122,0.0,4.0,94,0.00,,,0.01,0.000000,,2013-03-22 03:53:00,